Location: Unspecified
(0.0000°N, 0.0000°E)
Time: 23:47:40
(UTC+00:00)

Vanguard 2 - Pass Details

Date: 04 October 2020
Orbit: 554 x 2937 km, 32.9° (Epoch: 28 October)

Event Time Altitude Azimuth Distance (km) Brightness Sun altitude
Rises 21:27:39 0° 225° (SW) 6,365 12.6 -54.5°
Reaches altitude 10° 21:31:51 10° 220° (SW) 5,539 12.1 -55.6°
Enters shadow 21:41:49 39° 196° (SSW) 3,876 10.9 -58.0°
Maximum altitude 21:48:53 54° 147° (SSE) 3,343 - -59.8°
Drops below altitude 10° 22:04:15 10° 74° (ENE) 5,083 - -63.5°
Sets 22:07:50 0° 69° (ENE) 5,836 - -64.4°
